Tracking 19572 objects as of 23-Feb-2019
HD Live streaming from Space Station
objects crossing your sky now

ST5-A

Track ST5-A now!
10-day predictions
ST5-A is classified as:


NORAD ID: 28980
Int'l Code: 2006-008A
Perigee: 311.4 km
Apogee: 3,717.0 km
Inclination: 105.5 °
Period: 127.4 minutes
Semi major axis: 8385 km
RCS: 0.3025 m2 (medium)
Launch date: March 22, 2006
Source: United States (US)
Launch site: Pegasus launched from Western Range Air Space (WRAS)
aabbcc
Your satellite tracking list
Your tracking list is empty




NASA's NSSDC Master Catalog

Two Line Element Set (TLE):
1 28980U 06008A   19054.21048666  .00002528  00000-0  12545-3 0  9990
2 28980 105.5266 307.3257 2030741  89.4626 293.7135 11.30664522512876
Source of the keplerian elements: AFSPC